Crescent City, CA

1:44 AM PDT on September 29, 2016 (GMT -0700)
McNamara

Weather History for KCEC - May, 2013

Change the Weather History Date:

Thursday, May 16, 2013

  Actual Average Record
Temperature  
Mean Temperature 55 °F 52 °F  
Max Temperature 58 °F 58 °F 83 °F (1956)
Min Temperature 51 °F 47 °F 35 °F (2003)
Degree Days  
Heating Degree Days 12 13  
Month to date heating degree days 216  
Since 1 July heating degree days 4373  
Cooling Degree Days 0 0  
Month to date cooling degree days 0  
Year to date cooling degree days 0  
Growing Degree Days 2 (Base 50)    
Moisture  
Dew Point 52 °F    
Average Humidity 93    
Maximum Humidity 100    
Minimum Humidity 86    
Precipitation  
Precipitation 0.23 in 0.09 in 1.62 in (1994)
Month to date precipitation 0.44 1.73  
Year to date precipitation 16.75 34.06  
Since 1 July precipitation 50.45  
Snow  
Snow 0.00 in - - ()
Month to date snowfall 0.0  
Since 1 July snowfall 0.0  
Snow Depth -    
Sea Level Pressure  
Sea Level Pressure 30.05 in    
Wind  
Wind Speed 8 mph (South)    
Max Wind Speed 13 mph    
Max Gust Speed 15 mph    
Visibility 7 miles    
Events Rain    
T = Trace of Precipitation, MM = Missing Value Source: NWS Daily Summary

Daily Weather History Graph

Daily Weather History Graph

Search for Another Location

Airport or City:

Trip Planner

Search our weather history database for the weather conditions in past years. The results will help you decide how hot, cold, wet, or windy it might be!

Date:

Astronomy

May. 16, 2013 Rise Set
Actual Time 5:55 AM PDT 8:31 PM PDT
Civil Twilight 5:23 AM PDT 9:03 PM PDT
Nautical Twilight 4:44 AM PDT 9:43 PM PDT
Astronomical Twilight 3:59 AM PDT 10:28 PM PDT
Moon 11:36 AM PDT (5/16) 12:54 AM PDT (5/16)
Length of Visible Light 15h 39m
Length of Day
14h 35m
Waxing Crescent, 36% of the Moon is Illuminated
May 16
Waxing Crescent
May 17
First Quarter
May 24
Full
May 31
Last Quarter
Jun 8
New

Hourly Weather History & Observations

Time (PDT) Temp. Dew Point Humidity Pressure Visibility Wind Dir Wind Speed Gust Speed Precip Events Conditions
12:03 AM 53.6 °F 48.2 °F 82% 30.07 in 10.0 mi South 3.5 mph - N/A   Overcast
12:56 AM 54.0 °F 48.0 °F 80% 30.06 in 10.0 mi South 9.2 mph - 0.00 in Rain Light Rain
1:46 AM 51.8 °F 50.0 °F 94% 30.06 in 4.0 mi South 6.9 mph - 0.04 in Rain Rain
1:56 AM 52.0 °F 51.1 °F 97% 30.06 in 3.0 mi South 10.4 mph - 0.06 in Rain Rain
2:24 AM 51.8 °F 51.8 °F 100% 30.05 in 4.0 mi South 10.4 mph - 0.03 in Rain Light Rain
2:36 AM 51.8 °F 51.8 °F 100% 30.04 in 3.0 mi SSE 9.2 mph - 0.04 in Rain Rain
2:56 AM 52.0 °F 51.1 °F 97% 30.04 in 4.0 mi SSE 8.1 mph - 0.07 in Rain Rain
3:56 AM 52.0 °F 52.0 °F 100% 30.04 in 6.0 mi South 6.9 mph - 0.06 in Rain Light Rain
4:38 AM 51.8 °F 51.8 °F 100% 30.03 in 6.0 mi South 5.8 mph - 0.00 in   Overcast
4:56 AM 52.0 °F 52.0 °F 100% 30.03 in 4.0 mi South 3.5 mph - 0.00 in Rain Light Rain
5:10 AM 51.8 °F 51.8 °F 100% 30.02 in 6.0 mi Calm Calm - 0.00 in   Overcast
5:43 AM 51.8 °F 51.8 °F 100% 30.02 in 8.0 mi Calm Calm - 0.00 in   Overcast
5:56 AM 52.0 °F 52.0 °F 100% 30.03 in 9.0 mi Calm Calm - 0.00 in   Overcast
6:20 AM 51.8 °F 51.8 °F 100% 30.02 in 7.0 mi SSE 3.5 mph - N/A   Overcast
6:39 AM 51.8 °F 51.8 °F 100% 30.03 in 5.0 mi Calm Calm - N/A   Overcast
6:53 AM 51.8 °F 51.8 °F 100% 30.03 in 7.0 mi SSE 3.5 mph - N/A   Overcast
6:56 AM 52.0 °F 51.1 °F 97% 30.03 in 7.0 mi SSE 3.5 mph - N/A   Overcast
7:56 AM 53.1 °F 52.0 °F 96% 30.04 in 9.0 mi SSE 3.5 mph - N/A   Overcast
8:11 AM 53.6 °F 53.6 °F 100% 30.03 in 10.0 mi SSE 4.6 mph - N/A   Overcast
8:18 AM 53.6 °F 53.6 °F 100% 30.03 in 10.0 mi SSE 4.6 mph - N/A   Overcast
8:56 AM 54.0 °F 52.0 °F 93% 30.04 in 6.0 mi South 6.9 mph - 0.00 in Rain Light Rain
9:05 AM 53.6 °F 51.8 °F 94% 30.04 in 8.0 mi South 5.8 mph - 0.00 in Rain Light Rain
9:12 AM 53.6 °F 51.8 °F 94% 30.04 in 9.0 mi South 6.9 mph - 0.00 in   Overcast
9:56 AM 53.1 °F 51.1 °F 93% 30.05 in 10.0 mi South 9.2 mph - 0.00 in   Overcast
10:15 AM 53.6 °F 51.8 °F 94% 30.05 in 8.0 mi SSE 9.2 mph - 0.00 in Rain Light Rain
10:27 AM 53.6 °F 51.8 °F 94% 30.05 in 2.5 mi SSE 8.1 mph - 0.02 in Rain Rain
10:39 AM 53.6 °F 53.6 °F 100% 30.05 in 8.0 mi SSE 6.9 mph - 0.03 in Rain Light Rain
10:56 AM 54.0 °F 53.1 °F 97% 30.06 in 8.0 mi South 8.1 mph - 0.03 in   Overcast
11:22 AM 55.4 °F 55.4 °F 100% 30.06 in 9.0 mi South 10.4 mph - N/A   Overcast
11:56 AM 55.9 °F 55.0 °F 97% 30.07 in 9.0 mi South 10.4 mph - N/A   Overcast
12:08 PM 55.4 °F 55.4 °F 100% 30.06 in 9.0 mi South 10.4 mph - N/A   Overcast
12:56 PM 57.0 °F 54.0 °F 89% 30.06 in 10.0 mi South 10.4 mph - N/A   Overcast
1:56 PM 55.9 °F 54.0 °F 93% 30.06 in 10.0 mi South 9.2 mph - N/A   Overcast
2:12 PM 55.4 °F 53.6 °F 94% 30.06 in 9.0 mi South 9.2 mph - N/A   Overcast
2:56 PM 53.1 °F 51.1 °F 93% 30.07 in 4.0 mi SSW 6.9 mph - 0.00 in Rain Light Rain
3:44 PM 55.4 °F 51.8 °F 88% 30.06 in 10.0 mi South 5.8 mph - 0.01 in   Overcast
3:56 PM 55.0 °F 53.1 °F 93% 30.06 in 10.0 mi South 4.6 mph - 0.01 in   Overcast
4:21 PM 55.4 °F 53.6 °F 94% 30.05 in 10.0 mi South 8.1 mph - N/A   Overcast
4:37 PM 57.2 °F 53.6 °F 88% 30.05 in 10.0 mi South 5.8 mph - N/A   Overcast
4:56 PM 55.9 °F 53.1 °F 90% 30.05 in 10.0 mi South 8.1 mph - N/A   Overcast
5:19 PM 57.2 °F 53.6 °F 88% 30.05 in 10.0 mi South 8.1 mph - N/A   Overcast
5:56 PM 55.0 °F 53.1 °F 93% 30.05 in 10.0 mi South 6.9 mph - N/A   Overcast
6:09 PM 55.4 °F 51.8 °F 88% 30.04 in 10.0 mi South 6.9 mph - N/A   Overcast
6:47 PM 53.6 °F 51.8 °F 94% 30.04 in 9.0 mi South 4.6 mph - N/A   Overcast
6:56 PM 55.0 °F 52.0 °F 89% 30.04 in 10.0 mi South 4.6 mph - N/A   Overcast
7:56 PM 55.0 °F 53.1 °F 93% 30.04 in 10.0 mi Calm Calm - N/A   Overcast
8:06 PM 55.4 °F 51.8 °F 88% 30.04 in 10.0 mi Calm Calm - N/A   Overcast
8:13 PM 55.4 °F 51.8 °F 88% 30.04 in 10.0 mi Calm Calm - N/A   Overcast
8:56 PM 53.1 °F 50.0 °F 89% 30.04 in 8.0 mi Calm Calm - N/A   Overcast
9:56 PM 52.0 °F 51.1 °F 97% 30.06 in 4.0 mi Calm Calm - N/A   Overcast
10:56 PM 51.1 °F 50.0 °F 96% 30.06 in 4.0 mi Calm Calm - N/A   Mostly Cloudy
11:01 PM 51.8 °F 48.2 °F 88% 30.05 in 2.0 mi Calm Calm - N/A   Mostly Cloudy
11:16 PM 51.8 °F 48.2 °F 88% 30.05 in 6.0 mi Calm Calm - N/A   Mostly Cloudy
11:35 PM 48.2 °F 48.2 °F 100% 30.06 in 2.5 mi Calm Calm - N/A   Overcast
11:38 PM 48.2 °F 48.2 °F 100% 30.06 in 1.5 mi Calm Calm - N/A   Overcast
11:42 PM 50.0 °F 48.2 °F 94% 30.06 in 1.2 mi Calm Calm - N/A   Overcast
11:52 PM 51.8 °F 50.0 °F 94% 30.06 in 1.8 mi Calm Calm - N/A   Overcast
11:56 PM 51.1 °F 50.0 °F 96% 30.06 in 1.2 mi Calm Calm - N/A   Overcast